[[{"header":{"parameterUnit":"m.s-1","parameterCategory":1,"la1":30.2991,"la2":30.254,"lo1":-89.0895,"lo2":-89.0444,"dy":0.0017,"dx":0.0017,"nx":28,"ny":28,"refTime":"2023-09-20T03:00:00:Z","depth":0,"parameterNumber":2,"parameterNumberName":"U-component_of_WINDS"},"data":[0,0,0,0,0,0,0,0,0,0,0,0,0,0,0,0,0,0,0,0,0,0,0,0,0,0,0,0,0,0,0,0,0,0,0,0,0,0,0,0,0,0,0,0,0,0,0,0,0,0,0,0,0,0,0,0,0,0,-4.7457,-4.7457,0,-4.7419,-4.7419,-4.7419,-4.7285,-4.7282,-4.7279,-4.7276,-4.724,-4.7241,-4.7243,0,0,0,0,0,0,0,0,0,0,0,0,0,-4.7418,-4.7419,-4.7457,-4.7457,-4.7456,-4.742,-4.7419,-4.7418,-4.7285,-4.7282,-4.7278,-4.7274,-4.7239,-4.7241,-4.7243,0,0,0,0,0,0,0,0,0,0,0,0,0,-4.7413,-4.7419,-4.7457,-4.7385,-4.7379,-4.742,-4.7419,-4.7418,-4.7286,-4.7281,-4.7277,-4.7273,-4.7238,-4.7241,-4.7244,-4.7352,0,0,-4.7252,-4.7253,0,0,0,0,0,0,0,0,-4.7413,-4.7415,-4.7396,-4.739,-4.7383,-4.7352,-4.7391,-4.7396,-4.7287,-4.7321,-4.7276,-4.727,-4.7281,-4.728,-4.7283,-4.735,-4.7349,-4.7252,-4.7254,-4.7255,-4.7256,0,0,0,0,0,0,0,-4.7414,-4.7415,-4.7442,-4.7396,-4.7388,-4.7356,-4.735,-4.7392,-4.7327,-4.7318,-4.7308,-4.7305,-4.7276,-4.728,-4.7281,-4.7348,-4.7252,-4.7255,-4.7257,-4.7258,-4.7504,-4.7509,0,0,0,0,0,0,-4.7424,-4.7417,-4.7444,-4.7441,-4.7387,-4.7361,-4.7354,-4.7367,-4.7326,-4.7316,-4.7309,-4.7299,-4.7278,-4.7278,-4.7279,-4.7404,-4.7255,-4.7258,-4.726,-4.75,-4.7506,-4.7511,0,0,0,0,0,0,-4.7424,-4.7428,-4.7445,-4.7426,-4.7426,-4.7366,-4.7381,-4.7368,-4.7372,-4.732,-4.7308,-4.7325,-4.7274,-4.7275,-4.7335,-4.7401,-4.7259,-4.7262,-4.7494,-4.7501,-4.7508,-4.7655,0,0,0,0,0,0,-4.7423,-4.7428,-4.7468,-4.7428,-4.7428,-4.7501,-4.7385,-4.7371,-4.7377,-4.7364,-4.7331,-4.7322,-4.7271,-4.7332,-4.7338,-4.7402,-4.7264,-4.7488,-4.7497,-4.7506,-4.7644,-4.7666,-4.7685,0,0,0,0,0,-4.7422,-4.7511,-4.7471,-4.7475,-4.7476,-4.7505,-4.7505,-4.7443,-4.7383,-4.7423,-4.7389,-4.7323,-4.7393,-4.7339,-4.7345,-4.7411,-4.7483,-4.7495,-4.7505,-4.7634,-4.7662,-4.7685,0,0,0,0,0,0,-4.756,-4.7504,-4.7459,-4.7537,-4.7527,-4.7482,-4.753,-4.7474,-4.7481,-4.7468,-4.7393,-4.7387,-4.7458,-4.744,-4.7381,-4.7515,-4.7427,-4.744,-4.7523,-4.7549,-4.7569,-4.7572,-4.7266,0,0,0,0,0,-4.76,-4.7628,-4.7577,-4.7651,-4.7648,-4.7591,-4.7601,-4.7555,-4.7542,-4.7537,-4.7508,-4.7498,-4.7518,-4.7532,-4.7547,-4.7641,-4.7633,-4.7689,-4.771,-4.7728,-4.7739,-4.7789,-4.7814,-4.7547,-4.7547,-4.7547,0,0,-4.7682,-4.7655,-4.7677,-4.7679,-4.7665,-4.7696,-4.7588,-4.7625,-4.7648,-4.7543,-4.7597,-4.7576,-4.756,-4.7638,-4.767,-4.7625,-4.7812,-4.7742,-4.7756,-4.7758,-4.7803,-4.7828,-4.7851,-4.7554,-4.7553,-4.7552,0,0,-4.7847,-4.7829,-4.7889,-4.7878,-4.7859,-4.7821,-4.7836,-4.78,-4.7782,-4.7835,-4.7757,-4.7784,-4.7819,-4.7812,-4.7812,-4.7978,-4.7917,-4.7985,-4.8094,-4.8143,-4.8164,-4.8182,-4.8242,-4.8264,-4.7997,-4.7998,-4.7998,0,-4.7951,-4.7994,-4.7927,-4.797,-4.7974,-4.788,-4.7941,-4.7934,-4.7922,-4.7927,-4.7877,-4.792,-4.7903,-4.7978,-4.8018,-4.8022,-4.8037,-4.7988,-4.8166,-4.8184,-4.82,-4.8256,-4.8279,-4.8006,-4.8005,-4.8004,-4.8003,0,-4.8124,-4.8156,-4.8207,-4.8197,-4.8206,-4.8259,-4.8201,-4.8219,-4.8173,-4.814,-4.8197,-4.8174,-4.8183,-4.8198,-4.8153,-4.8267,-4.824,-4.8179,-4.809,-4.8235,-4.8286,-4.8307,-4.8018,-4.8015,-4.8012,-4.801,0,0,-4.8373,-4.8327,-4.8347,-4.8342,-4.8315,-4.8339,-4.8388,-4.8397,-4.8414,-4.841,-4.8449,-4.8483,-4.8427,-4.8428,-4.8382,-4.8425,-4.8559,-4.8359,-4.8357,-4.8397,-4.8685,-4.8731,-4.8757,-4.8519,-4.8523,-4.8526,-4.8686,0,-4.8531,-4.861,-4.8552,-4.8642,-4.8671,-4.8584,-4.8626,-4.8616,-4.8587,-4.8609,-4.8577,-4.8603,-4.8526,-4.8527,-4.8566,-4.8535,-4.8616,-4.8522,-4.8556,-4.8558,-4.8563,-4.8783,-4.8831,-4.8984,-4.8706,-4.8709,-4.8712,0,-4.8724,-4.8728,-4.8821,-4.879,-4.88,-4.8839,-4.8844,-4.8865,-4.8852,-4.8828,-4.8831,-4.8774,-4.8821,-4.8735,-4.8799,-4.8737,-4.8748,-4.8735,-4.8739,-4.874,-4.8644,-4.879,-4.903,-4.9054,-4.8743,-4.874,-4.8738,0,-4.8897,-4.8926,-4.8986,-4.8984,-4.8949,-4.8979,-4.8966,-4.8948,-4.8958,-4.8963,-4.8968,-4.8979,-4.8985,-4.8995,-4.8943,-4.8884,-4.9015,-4.8923,-4.8998,-4.9,-4.9029,-4.9028,-4.9275,-4.9037,-4.9036,-4.9036,-4.9035,0,-4.9079,-4.9139,-4.9063,-4.91,-4.9166,-4.91,-4.9167,-4.9145,-4.9131,-4.9162,-4.9088,-4.912,-4.9049,-4.9075,-4.9035,-4.9095,-4.9098,-4.9082,-4.907,-4.9088,-4.9091,-4.9094,-4.9082,-4.9042,-4.904,-4.9039,-4.9038,0,-4.9283,-4.9234,-4.9293,-4.9256,-4.9248,-4.9299,-4.9267,-4.93,-4.9267,-4.9309,-4.9315,-4.9264,-4.929,-4.924,-4.9259,-4.9233,-4.9318,-4.929,-4.9322,-4.9314,-4.9392,-4.9385,-4.9649,-4.9681,-4.9423,-4.9426,-4.9428,0,-4.9401,-4.9446,-4.9414,-4.943,-4.9421,-4.9447,-4.9457,-4.9395,-4.9408,-4.9398,-4.9433,-4.9453,-4.9465,-4.9511,-4.9476,-4.9491,-4.9463,-4.9555,-4.9465,-4.9482,-4.9465,-4.9463,-4.9468,-4.9574,-4.9577,-4.9579,-4.9581,0,-4.9618,-4.9592,-4.9608,-4.9618,-4.9631,-4.9635,-4.9634,-4.9652,-4.9586,-4.9605,-4.9631,-4.9641,-4.9661,-4.9682,-4.9689,-4.9677,-4.9619,-4.961,-4.9628,-4.9647,-4.9664,-4.9656,-4.9373,-4.9604,-4.9602,-4.96,-4.9599,-4.9598,-4.9782,-4.9818,-4.9802,-4.9823,-4.9816,-4.9818,-4.9847,-4.9819,-4.9839,-4.985,-4.9813,-4.9847,-4.9835,-4.9839,-4.9833,-4.986,-4.9819,-4.9845,-4.9852,-4.9859,-4.9872,-4.966,-4.9861,-4.986,-4.986,-4.9859,-4.9859,0,-4.9995,-4.998,-5.0001,-5.0002,-5.002,-4.9964,-4.996,-4.9979,-5.001,-5.0003,-5.0017,-5.0048,-5.0069,-5.0037,-5.0052,-5.008,-5.0055,-5.0087,-5.0084,-5.0082,-4.9907,-4.989,-5.0107,-5.0107,-5.0107,-5.0107,-5.0107,-5.0107,-5.0107,-5.0166,-5.0139,-5.0194,-5.0179,-5.0212,-5.0215,-5.0216,-5.0211,-5.0248,-5.0265,-5.0244,-5.0227,-5.0242,-5.0259,-5.0249,-5.0259,-5.03,-5.0282,-5.0119,-5.0094,-5.0071,-5.0055,-5.0303,-5.0303,-5.0454,-5.0455,-5.0456]},{"header":{"parameterUnit":"m.s-1","parameterCategory":1,"la1":30.2991,"la2":30.254,"lo1":-89.0895,"lo2":-89.0444,"dy":0.0017,"dx":0.0017,"nx":28,"ny":28,"refTime":"2023-09-20T03:00:00:Z","depth":0,"parameterNumber":3,"parameterNumberName":"V-component_of_WINDS"},"data":[0,0,0,0,0,0,0,0,0,0,0,0,0,0,0,0,0,0,0,0,0,0,0,0,0,0,0,0,0,0,0,0,0,0,0,0,0,0,0,0,0,0,0,0,0,0,0,0,0,0,0,0,0,0,0,0,0,0,0.1276,0.1276,0,0.122,0.1219,0.1219,0.1235,0.1236,0.1237,0.1238,0.1176,0.1173,0.117,0,0,0,0,0,0,0,0,0,0,0,0,0,0.1395,0.1392,0.1277,0.1276,0.1275,0.122,0.1219,0.1219,0.1235,0.1236,0.1237,0.1239,0.1177,0.1173,0.117,0,0,0,0,0,0,0,0,0,0,0,0,0,0.1341,0.1392,0.1277,0.1277,0.1276,0.122,0.1219,0.1218,0.1234,0.1236,0.1238,0.1239,0.1178,0.1174,0.117,0.1109,0,0,0.1157,0.1155,0,0,0,0,0,0,0,0,0.1344,0.1337,0.1277,0.1277,0.1276,0.1236,0.1238,0.1182,0.1234,0.125,0.1238,0.124,0.1194,0.1189,0.1174,0.1106,0.1103,0.1157,0.1154,0.1152,0.1151,0,0,0,0,0,0,0,0.1348,0.1339,0.1254,0.1276,0.1275,0.1278,0.1273,0.1227,0.1213,0.1249,0.125,0.1243,0.1194,0.1178,0.1173,0.1103,0.1157,0.1153,0.115,0.1149,0.0982,0.098,0,0,0,0,0,0,0.1353,0.1342,0.1256,0.1252,0.1315,0.1275,0.1268,0.1247,0.1213,0.121,0.1242,0.1244,0.1184,0.1178,0.1171,0.1097,0.1152,0.1148,0.1146,0.0984,0.0981,0.0979,0,0,0,0,0,0,0.1355,0.1345,0.1258,0.1298,0.1287,0.1271,0.1247,0.1245,0.1229,0.1208,0.1205,0.1228,0.1185,0.1177,0.1125,0.1095,0.1147,0.1143,0.0986,0.0983,0.098,0.0949,0,0,0,0,0,0,0.1358,0.1346,0.1323,0.1297,0.1285,0.1214,0.1245,0.1243,0.1223,0.1225,0.1195,0.1191,0.1186,0.1131,0.112,0.109,0.114,0.0988,0.0985,0.0981,0.0953,0.0946,0.0939,0,0,0,0,0,0.1363,0.1316,0.1322,0.1311,0.1256,0.1212,0.1205,0.1201,0.122,0.1197,0.1184,0.1192,0.1101,0.1125,0.1114,0.1082,0.099,0.0986,0.0981,0.0956,0.0947,0.094,0,0,0,0,0,0,0.1337,0.1312,0.1319,0.1262,0.1239,0.1215,0.1185,0.1192,0.1162,0.1165,0.1161,0.1154,0.11,0.1086,0.1114,0.1022,0.1048,0.1041,0.1032,0.1024,0.1017,0.1021,0.1136,0,0,0,0,0,0.1325,0.1292,0.1272,0.1224,0.1213,0.1201,0.1182,0.1181,0.1156,0.1146,0.1129,0.1103,0.1069,0.1046,0.1013,0.0952,0.0945,0.0924,0.0918,0.0912,0.0905,0.0871,0.0862,0.0965,0.0965,0.0965,0,0,0.1299,0.1282,0.1261,0.1218,0.1201,0.1166,0.1192,0.1154,0.1128,0.114,0.109,0.1077,0.1048,0.0991,0.0965,0.0977,0.0876,0.0907,0.0903,0.0899,0.0866,0.0856,0.0847,0.0962,0.0962,0.0963,0,0,0.1234,0.1218,0.1176,0.1158,0.1132,0.1125,0.1115,0.109,0.1082,0.1032,0.104,0.1009,0.0949,0.0928,0.091,0.0839,0.0845,0.0828,0.0792,0.0759,0.0751,0.0744,0.0717,0.0707,0.0822,0.0822,0.0822,0,0.1204,0.1153,0.1153,0.1114,0.1095,0.1107,0.1064,0.1046,0.1009,0.0995,0.1011,0.0937,0.0918,0.0856,0.0839,0.0825,0.0812,0.083,0.0752,0.0745,0.0738,0.0712,0.0702,0.082,0.082,0.0821,0.0821,0,0.1118,0.1082,0.1051,0.1017,0.0995,0.0954,0.0947,0.0924,0.0926,0.0917,0.0866,0.0845,0.0808,0.0794,0.0794,0.0731,0.074,0.0754,0.078,0.0726,0.0702,0.0692,0.0817,0.0818,0.0819,0.0819,0,0,0.1031,0.1,0.0988,0.0973,0.0946,0.0917,0.0877,0.0843,0.0823,0.0798,0.0762,0.0713,0.0726,0.0705,0.0704,0.0675,0.0619,0.0693,0.0692,0.0678,0.0547,0.0535,0.0523,0.0624,0.0623,0.0621,0.0548,0,0.0963,0.0893,0.0893,0.0828,0.0794,0.0806,0.0771,0.075,0.0741,0.071,0.07,0.0664,0.0685,0.0673,0.0645,0.0632,0.0592,0.0637,0.0589,0.0588,0.0594,0.0511,0.0498,0.043,0.0539,0.0537,0.0536,0,0.0872,0.0846,0.0778,0.0756,0.0742,0.071,0.0679,0.065,0.0626,0.0621,0.0599,0.0603,0.0561,0.059,0.0531,0.0562,0.0543,0.0534,0.0531,0.0524,0.0557,0.05,0.0409,0.0397,0.0522,0.0523,0.0524,0,0.0814,0.0762,0.0714,0.0701,0.0675,0.0652,0.064,0.0618,0.0597,0.0569,0.0556,0.0523,0.0504,0.0478,0.0473,0.0495,0.0413,0.0442,0.0406,0.0406,0.0386,0.0387,0.0288,0.0378,0.0378,0.0378,0.0378,0,0.0735,0.0693,0.0688,0.0658,0.0611,0.0612,0.0564,0.0554,0.0534,0.0502,0.0511,0.048,0.0476,0.0443,0.0439,0.039,0.0382,0.0376,0.0374,0.0373,0.0374,0.0359,0.0362,0.0375,0.0376,0.0377,0.0377,0,0.0661,0.0657,0.0605,0.0585,0.0579,0.0545,0.0527,0.0498,0.0492,0.0451,0.0441,0.0429,0.0392,0.0385,0.0341,0.0338,0.0278,0.0283,0.0287,0.0286,0.025,0.0253,0.0136,0.012,0.0222,0.0221,0.022,0,0.061,0.0578,0.0555,0.0535,0.0522,0.0489,0.0469,0.0468,0.0446,0.0418,0.0392,0.0356,0.0327,0.0267,0.0253,0.022,0.0222,0.0184,0.0217,0.0217,0.0219,0.022,0.0216,0.0176,0.0175,0.0174,0.0174,0,0.052,0.0519,0.049,0.046,0.0436,0.0412,0.039,0.0372,0.0369,0.0344,0.0307,0.0284,0.024,0.0204,0.017,0.0156,0.0163,0.0164,0.0153,0.015,0.0153,0.0149,0.0267,0.0166,0.0166,0.0167,0.0167,0.0168,0.0454,0.0426,0.0406,0.0373,0.0356,0.0335,0.0307,0.0298,0.0268,0.0232,0.0234,0.0193,0.017,0.0126,0.011,0.0077,0.0089,0.0074,0.007,0.0065,0.0061,0.0161,0.0071,0.0071,0.0072,0.0072,0.0072,0,0.0362,0.035,0.032,0.0289,0.0263,0.0276,0.0252,0.0228,0.0193,0.0172,0.0144,0.0101,0.0066,0.0051,0.0017,-0.0007,-0.0005,-0.0016,-0.0016,-0.002,0.0053,0.0065,-0.0018,-0.0018,-0.0018,-0.0018,-0.0018,-0.0018,0.0311,0.0264,0.0261,0.0206,0.0194,0.0155,0.014,0.012,0.0104,0.0056,0.0028,0.0019,-0.0,-0.0036,-0.0067,-0.0071,-0.0085,-0.0099,-0.0101,-0.0034,-0.0025,-0.0016,-0.0005,-0.0101,-0.0102,-0.0172,-0.0173,-0.0173]}]]